AO-07 1 07530U 74089B 09323.63134309 -.00000027 00000-0 10000-3 0 6349 2 07530 101.4165 342.5404 0011957 325.2288 034.8003 12.53576964602194 FO-29 1 24278U 96046B 09322.63629041 -.00000049 00000-0 -11141-4 0 1781 2 24278 098.5215 175.7262 0350021 310.1093 046.9848 13.52946543654638 SO-33 1 25509U 98061B 09323.85355155 -.00000139 00000-0 -42294-4 0 5894 2 25509 031.4348 252.2646 0354730 259.5277 096.5235 14.28270404578105 RS-22 1 27939U 03042A 09322.66413163 .00000130 00000-0 33844-4 0 9412 2 27939 097.9184 191.6984 0013808 009.4872 350.6587 14.63357652328164 VO-52 1 28650U 05017B 09322.84009407 -.00000194 00000-0 -17944-4 0 03700 2 28650 097.7241 019.1448 0026072 243.2942 116.5589 14.81641773245540 SO-67 1 35870U 09049F 09323.76365821 .00000650 00000-0 30679-4 0 1879 2 35870 097.3643 012.6286 0013202 075.0135 033.0416 15.22857633 9593 AO-16 1 20439U 90005D 09322.85041992 .00000032 00000-0 27294-4 0 7537 2 20439 098.3022 284.3905 0011893 071.9966 288.2505 14.31839726 35287 LO-19 1 20442U 90005G 09322.67254809 -.00000111 00000-0 -25899-4 0 6655 2 20442 098.2635 290.8782 0012847 068.7540 291.5012 14.32072761 35422 AO-27 1 22825U 93061C 09323.90843951 -.00000065 00000-0 -88525-5 0 3882 2 22825 098.4600 272.5824 0009016 160.4348 199.7233 14.29278392842151 IO-26 1 22826U 93061D 09322.82126050 .00000020 00000-0 24583-4 0 01247 2 22826 098.4507 272.2105 0008971 159.0549 201.1003 14.29532194842104 GO-32 1 25397U 98043D 09322.74622702 -.00000141 00000-0 -44483-4 0 00442 2 25397 098.3180 336.7530 0001655 129.6332 230.4990 14.23165961590118 NO-44 1 26931U 01043C 09322.76087227 .00000258 00000-0 13308-3 0 3160 2 26931 067.0543 026.1151 0007022 270.8203 089.2097 14.29574478424676 SO-50 1 27607U 02058C 09322.94083483 -.00000095 00000-0 69087-5 0 00375 2 27607 064.5580 275.0809 0048824 164.7565 195.5009 14.71474640371449 CO-55 1 27844U 03031E 09323.50120861 .00000065 00000-0 50332-4 0 7156 2 27844 098.7125 330.4806 0010644 057.8043 302.4170 14.20667678331310 CO-57 1 27848U 03031J 09322.51443068 .00000050 00000-0 43626-4 0 06675 2 27848 098.7172 328.5759 0010690 064.1827 296.0448 14.20465657331132 AO-51 1 28375U 04025K 09323.54073303 .00000022 00000-0 19244-4 0 5374 2 28375 098.0536 324.1117 0084997 014.0136 346.3385 14.40659431283326 CO-56 1 28941U 06005C 09297.68475575 .14491492 29743-5 25760-3 0 5565 2 28941 098.0955 138.9518 0011688 319.8691 040.7485 16.46998778207909 GENESAT1 1 29655U 06058C 09322.30832141 .00025936 00000-0 21278-3 0 08698 2 29655 040.0230 295.1476 0004956 238.0227 122.0107 15.69759391166663 CP3 1 31129U 07012N 09323.68821007 .00000116 00000-0 37293-4 0 3366 2 31129 097.9704 009.1616 0102415 162.9367 197.5308 14.52181848137459 CO-65 1 32785U 08021C 09322.52061831 -.00000014 00000-0 50589-5 0 05352 2 32785 097.9282 025.0581 0013924 249.1938 110.7789 14.81542020084293 KKS-1 1 33493U 09002B 09323.72557453 .00000401 00000-0 58922-4 0 9555 2 33493 098.0697 076.7379 0021212 098.2703 262.0925 14.80777666 44487 SOHLA-1 1 33496U 09002E 09323.77675025 .00000007 00000-0 94360-5 0 9198 2 33496 098.0488 070.7535 0007214 140.3294 219.8446 14.69455224 44125 NOAA-10 1 16969U 86073A 09322.65221479 .00000033 00000-0 31587-4 0 08417 2 16969 098.6788 348.3674 0012977 104.6931 255.5691 14.27399441205547 NOAA-11 1 19531U 88089A 09322.79220925 .00000263 00000-0 15880-3 0 08551 2 19531 098.7811 050.3255 0012119 030.6295 329.5584 14.14908472091381 NOAA-12 1 21263U 91032A 09322.72710985 .00000056 00000-0 42486-4 0 03414 2 21263 098.7709 330.8694 0013253 059.9375 300.3105 14.25602369962413 MET-3/5 1 21655U 91056A 09322.89821046 .00000051 00000-0 10000-3 0 07857 2 21655 082.5504 097.2102 0013684 150.1608 210.0294 13.17021073877992 MET-2/21 1 22782U 93055A 09322.78631457 .00000044 00000-0 26780-4 0 06239 2 22782 082.5494 059.3688 0020906 273.6149 086.2632 13.83641781818986 OKEAN-4 1 23317U 94066A 09322.70853704 .00000190 00000-0 20487-4 0 00784 2 23317 082.5409 190.2877 0020980 212.5983 147.3920 14.82738619815266 NOAA-14 1 23455U 94089A 09322.73752901 -.00000238 00000-0 -10228-3 0 08348 2 23455 098.8982 039.7782 0010272 111.4069 248.8187 14.13772116767769 NOAA-15 1 25338U 98030A 09322.83125258 .00000004 00000-0 20440-4 0 01609 2 25338 098.5992 308.7685 0010189 332.1783 027.8835 14.24793035598797 RESURS 1 25394U 98043A 09323.63587287 -.00000009 00000-0 13963-4 0 3619 2 25394 098.3229 347.9613 0002174 098.6626 261.4800 14.24190609590520 FENGYUN1 1 25730U 99025A 09322.70371109 .00000799 00000-0 49304-3 0 9039 2 25730 098.7702 288.3442 0021922 134.0904 226.2079 14.08071624542068 OKEAN-0 1 25860U 99039A 09322.51474635 .00000044 00000-0 14056-4 0 08416 2 25860 097.8052 297.7262 0001758 062.6349 297.5035 14.73597896555870 NOAA-16 1 26536U 00055A 09322.78129595 .00000223 00000-0 14571-3 0 06405 2 26536 099.1774 330.2144 0010380 203.9010 156.1640 14.12539811472129 NOAA-17 1 27453U 02032A 09322.71390954 -.00000074 00000-0 -13814-4 0 06331 2 27453 098.4644 016.3016 0012251 037.0513 323.1505 14.24106862384744 NOAA-18 1 28654U 05018A 09322.74410967 .00000298 00000-0 18971-3 0 01195 2 28654 098.9248 264.8973 0013591 288.0641 071.9044 14.11304860231755 NOAA-19 1 33591U 09005A 09322.75742882 .00000387 00000-0 23934-3 0 03259 2 33591 098.7647 264.6148 0014360 162.2403 197.9277 14.11003032040233 HUBBLE 1 20580U 90037B 09321.06096865 .00000344 00000-0 13596-4 0 4779 2 20580 028.4692 184.5336 0003392 108.0013 252.0927 15.00854380872848 ISS 1 25544U 98067A 09324.07948942 .00144306 00000-0 87504-3 0 155 2 25544 051.6442 225.8974 0005965 355.7582 139.7142 15.76560812630514 CO-58 1 28895U 05043F 09322.69848547 .00000085 00000-0 27340-4 0 04461 2 28895 098.0378 208.7995 0017191 222.3678 137.6181 14.59815307216276 FALCON 1 30776U 07006E 09323.84041867 .00000477 00000-0 37456-4 0 7042 2 30776 035.4341 234.9622 0000804 233.1762 126.8882 15.03369996148536 MAST 1 31126U 07012K 09323.68097520 .00000167 00000-0 48181-4 0 7355 2 31126 097.9684 011.1985 0094774 156.5697 203.9882 14.53531632137627 CAPE1 1 31130U 07012P 09322.63257857 .00000176 00000-0 51141-4 0 07467 2 31130 097.9706 008.0448 0102598 166.4222 193.9751 14.52105051137101 COMPASS 1 32787U 08021E 09322.21320933 .00000607 00000-0 83748-4 0 05271 2 32787 097.9252 024.5872 0014827 251.4476 108.5127 14.81695619084255 AAUSAT2 1 32788U 08021F 09322.16810202 .00000499 00000-0 69781-4 0 05178 2 32788 097.9251 024.6275 0014217 252.6097 107.3561 14.81824109084255 DO-64 1 32789U 08021G 09323.74201655 .00000522 00000-0 72654-4 0 5316 2 32789 097.9288 026.4558 0014713 245.7596 114.2081 14.81857722 84484 CO-66 1 32791U 08021J 09323.69271751 .00000456 00000-0 64917-4 0 5114 2 32791 097.9255 026.0812 0015088 245.6985 114.2652 14.81512568 84432 RS-30 1 32953U 08025A 09323.53464154 .00000010 00000-0 00000 0 0 4575 2 32953 082.5004 160.0374 0018389 198.7296 161.3110 12.43003105 67695 TACSAT-3 1 35001U 09028A 09322.63573306 .00004308 00000-0 11171-3 0 01628 2 35001 040.4549 036.6280 0023749 234.3699 125.4902 15.39578599028153 PHARMSAT 1 35002U 09028B 09322.61081826 .00003782 00000-0 96298-4 0 1414 2 35002 040.4683 035.7258 0026644 238.1493 121.6728 15.40301370 28156 HAWKSAT1 1 35003U 09028C 09322.59801017 .00007714 00000-0 18355-3 0 1487 2 35003 040.4604 034.5954 0026476 242.7437 117.0681 15.41374645 28177 CP6 1 35004U 09028D 09322.59262919 .00008907 00000-0 21001-3 0 01476 2 35004 040.4622 034.5635 0025747 242.6709 117.1486 15.41537401028169 AEROCUB3 1 35005U 09028E 09323.52350275 .00007405 00000-0 17681-3 0 1453 2 35005 040.4754 029.5097 0026776 244.6031 115.2009 15.41303765 28305 DRAGNSAT 1 35690U 09038B 09323.81673050 .00054078 00000-0 20151-3 0 1123 2 35690 051.6402 219.7585 0006456 137.7338 222.4161 15.87416704 17798 POLLUX 1 35693U 09038E 09323.80492473 .00049339 00000-0 19503-3 0 1171 2 35693 051.6395 220.4496 0005064 106.2184 253.9046 15.86259570 17758 CASTOR 1 35694U 09038F 09323.83279481 .00022591 00000-0 10584-3 0 1077 2 35694 051.6415 221.4211 0005397 101.3097 258.8319 15.83123520 17744 METEOR-M 1 35865U 09049A 09323.77843859 .00000176 00000-0 10000-3 0 581 2 35865 098.7909 013.7514 0001653 239.1683 120.9299 14.21827380 8960